Regional Weather Roundup
Issued by NWS

Home | Current Version | Previous Version | Graphics & Text | Print | Product List | Glossary Off
Versions: 1 2 3 4 5 6 7 8 9 10 11 12 13 14 15 16 17 18 19 20 21 22 23 24 25 26 27 28 29 30 31 32 33 34 35 36 37 38 39 40 41 42 43 44 45 46 47 48 49 50

000
ASUS43 KLMK 230102
RWRKY
KENTUCKY REGIONAL WEATHER ROUNDUP
NATIONAL WEATHER SERVICE LOUISVILLE KY
900 PM EDT SUN APR 22 2018

NOTE "FAIR" INDICATES FEW OR NO CLOUDS BELOW 12,000 FEET
WITH NO SIGNIFICANT WEATHER AND/OR OBSTRUCTIONS TO VISIBILITY.

KYZ001>023-026-027-061>063-070>075-230200-
WESTERN AND SOUTH CENTRAL KENTUCKY

CITY           SKY/WX    TMP DP  RH WIND       PRES   REMARKS
PADUCAH        LGT RAIN  59  56  89 E12       29.95S
HENDERSON      LGT RAIN  58  55  90 E6        30.03  FOG
OWENSBORO      CLOUDY    59  55  87 E5        30.04S
HOPKINSVILLE   LGT RAIN  57  57 100 E13       29.97S FOG
BOWLING GREEN  CLOUDY    60  57  89 E7        30.02F
GLASGOW        NOT AVBL
$$

KYZ024-025-028>034-038-045-046-053-230200-
NORTH CENTRAL KENTUCKY

CITY           SKY/WX    TMP DP  RH WIND       PRES   REMARKS
LOUISVILLE/SDF CLOUDY    66  34  30 NE15G23   30.07F
LOUISVILLE/LOU FAIR      65  35  33 NE14      30.08F
FORT KNOX      NOT AVBL
$$

KYZ035>037-039>044-047>052-055>060-089>105-230200-
NORTHEAST KENTUCKY

CITY           SKY/WX    TMP DP  RH WIND       PRES   REMARKS
LEXINGTON      MOCLDY    61  34  36 NE12      30.11F
COVINGTON      MOCLDY    62  26  25 NE10      30.15F
FRANKFORT      FAIR      64  28  25 NE10      30.10S
$$

KYZ054-064>069-076>088-106>120-230200-
SOUTHEAST KENTUCKY

CITY           SKY/WX    TMP DP  RH WIND       PRES   REMARKS
JACKSON        FAIR      64  34  32 VRB3      30.14R
LONDON         FAIR      66  46  48 SE12G20   30.10S
SOMERSET       NOT AVBL
MIDDLESBORO    FAIR      63  47  56 E7        30.13S
MONTICELLO     MOCLDY    65  48  54 SE6       30.08S
$$





USA.gov is the U.S. government's official web portal to all federal, state and local government web resources and services.